Voltar ao catálogo

FENGYUN 1C DEB

AtivoSSO
NORAD 30218·DEBRIS·🇨🇳 China

Lançado May 10, 1999 de Taiyuan Satellite Launch Center

Loading…

Próximas Passagens (próximas 24 horas)

TLE

AtualizadoSource: Space-Track

Época: Sep 13, 2026, 05:36 UTC

1 30218U 99025WB  26256.23371161  .00003541  00000-0  13120-2 0  9996
2 30218  98.9862 359.5398 0069037 176.7066 213.8093 14.31611976 10318

Acompanhe FENGYUN 1C DEB em tempo real com AllMySat

Download on the App Store